Wind_Speed
13 13 14 12 7 11 17 18 16 15 19 21 15 9 10 9 7 5 7 10 9 6 5 5 6 6 9 11 14 16 19 21 19 27 36 34 32 34 40 45 47 47 47 47 48 48 47 46 45 45 45 43 42 42 43 43 43 43 42 42 43 45 46 49 50 51 51 51 51 50 49 48 47 46 46 45 44 43 42 41 40 40 40 40 39 39 39
13 12 10 10 8 2 7 14 18 15 15 21 19 11 9 10 8 7 8 12 10 7 7 5 3 12 15 16 20 22 22 25 25 22 26 27 28 33 37 41 45 46 46 46 46 47 47 44 42 43 44 44 44 44 44 44 44 44 43 43 44 45 46 47 48 48 49 50 50 49 49 48 47 46 46 45 44 43 43 42 41 40 40 40 41 41 40
7 8 9 11 11 6 1 5 14 16 14 18 20 14 9 8 8 9 10 10 8 6 6 5 9 18 18 14 16 19 21 25 26 23 22 24 27 32 35 38 41 42 43 44 43 44 43 42 41 41 42 43 44 43 43 43 43 43 43 43 44 45 46 46 46 46 47 48 49 49 49 48 47 46 46 45 45 44 43 42 41 41 40 40 41 41 41
4 4 5 13 14 7 4 4 6 9 8 12 17 15 9 7 9 8 8 7 5 5 8 8 11 16 15 11 11 16 21 23 22 22 21 22 25 28 31 35 37 37 38 39 37 37 37 37 40 41 40 40 42 43 42 42 41 42 42 43 44 45 45 45 46 46 46 45 47 48 48 48 48 47 46 45 45 44 44 43 42 41 41 41 41 41 41
6 5 5 12 11 6 4 6 3 2 3 5 14 15 10 7 9 8 5 6 7 6 10 11 12 13 12 10 13 19 25 27 24 20 19 21 22 23 27 30 30 30 28 26 27 30 34 37 39 41 40 38 38 39 40 39 39 41 42 43 43 45 46 46 46 46 46 45 45 45 46 46 47 46 46 46 46 45 44 43 43 42 42 41 41 41 41
7 9 9 8 5 3 4 2 2 5 5 6 9 17 15 9 6 7 7 5 4 8 11 11 11 12 12 14 18 22 24 24 22 19 18 20 19 17 19 21 21 22 20 18 20 25 30 34 35 36 37 36 34 35 36 37 38 39 41 42 43 44 45 47 47 46 45 45 44 44 43 43 44 46 47 47 46 45 44 44 44 44 43 42 42 42 42
6 8 7 4 2 5 4 3 7 6 3 6 4 9 9 6 3 4 10 9 7 8 10 12 15 19 23 24 25 25 25 25 24 22 19 18 17 15 16 14 14 18 18 16 16 18 19 23 26 29 31 32 31 31 32 35 36 37 38 40 42 44 45 46 48 48 46 45 44 44 43 42 43 44 45 46 45 45 45 45 45 45 44 44 43 43 43
4 4 2 3 3 6 3 6 9 8 5 2 9 15 9 10 14 8 6 14 14 10 10 15 23 30 33 31 31 33 32 30 30 29 27 26 26 23 20 17 15 17 17 14 13 14 14 14 17 22 26 28 30 29 30 32 34 35 37 39 41 42 43 45 48 49 48 46 44 43 42 42 43 43 44 45 45 45 45 45 45 45 45 45 45 44 44
3 4 4 3 3 5 5 8 10 12 10 3 5 10 12 17 22 20 7 11 18 15 12 17 25 32 30 22 22 30 31 29 30 30 29 28 27 25 23 21 20 19 19 17 15 17 16 12 11 16 21 24 27 28 29 31 33 33 34 38 41 42 42 42 45 48 49 48 46 44 43 43 43 43 43 43 44 44 45 46 46 46 46 46 45 45 45
3 5 4 2 2 2 7 13 16 16 16 8 7 12 13 17 22 23 17 7 11 15 13 15 21 25 21 9 10 22 27 26 28 29 27 24 21 20 18 17 17 15 13 12 12 14 14 12 13 15 16 17 22 26 27 30 32 33 34 36 38 41 42 41 41 44 47 49 47 45 44 43 43 43 43 43 43 43 45 45 46 46 46 46 46 47 47
5 4 2 3 2 2 11 18 17 20 24 14 6 13 11 14 19 22 21 16 13 10 12 15 15 15 11 5 7 19 25 25 25 25 25 23 19 16 14 13 15 14 11 10 10 7 5 9 12 14 13 12 14 20 25 28 29 31 35 37 37 38 40 40 39 40 43 46 47 47 45 44 43 42 42 42 42 42 43 44 45 45 45 46 46 47 47
5 4 2 3 0 3 14 19 17 25 29 13 7 9 6 11 18 22 22 19 19 19 19 19 13 9 8 7 11 20 24 24 25 23 22 21 19 17 14 12 13 12 10 12 12 7 3 4 9 12 14 13 12 13 19 25 29 30 32 34 35 36 37 37 38 37 39 42 45 46 46 44 42 42 41 41 41 41 41 42 42 43 44 45 45 45 46
5 4 1 2 0 4 15 19 21 26 21 6 10 6 3 10 16 22 24 22 24 25 24 19 13 13 17 17 20 24 25 23 23 21 18 17 18 19 15 12 11 10 9 11 10 4 2 4 7 10 14 15 15 13 14 19 26 29 29 29 30 32 34 36 37 36 36 37 40 43 44 43 42 41 41 40 40 39 39 39 39 40 41 43 44 44 43
4 2 0 1 0 6 17 21 23 23 11 5 5 1 4 10 16 21 25 25 24 25 25 23 20 22 25 25 25 26 26 24 23 21 19 16 17 18 14 11 10 9 8 7 4 2 5 6 6 9 12 13 14 13 13 15 20 23 24 26 27 28 30 33 36 36 35 34 35 38 40 41 41 40 40 39 38 37 37 37 37 38 39 40 41 43 42
3 1 2 2 0 9 21 20 17 16 9 4 2 3 7 16 21 21 23 25 25 24 24 25 25 25 26 26 26 25 24 23 22 20 19 17 16 15 13 10 8 7 6 4 2 5 7 8 6 7 11 13 12 11 11 14 16 18 18 19 22 25 28 29 32 35 35 34 33 35 37 39 39 39 38 37 37 36 35 35 35 37 38 38 39 40 41
3 1 2 2 2 7 17 16 10 8 8 11 11 10 12 18 21 22 23 25 27 25 22 22 24 25 25 24 24 23 22 20 18 17 16 15 14 13 10 9 7 4 4 6 6 6 6 7 4 2 5 9 10 10 12 13 15 16 16 15 16 21 26 28 29 31 33 34 33 33 34 37 37 37 36 36 35 34 34 34 34 35 36 37 37 38 38
2 1 3 2 3 10 16 16 14 15 13 18 18 17 16 18 21 22 23 24 26 25 23 23 23 23 23 22 21 21 20 18 16 15 13 12 13 11 8 8 7 3 3 6 7 4 3 2 0 1 2 4 7 10 12 13 13 14 15 15 15 16 20 25 29 30 31 32 32 32 33 34 35 34 34 34 33 32 32 32 33 34 35 35 34 34 34
3 3 4 3 7 14 16 14 14 17 16 18 19 19 18 19 20 21 23 24 24 24 23 24 24 22 22 22 21 20 19 18 16 15 12 9 10 11 10 9 7 4 2 4 4 3 2 2 2 2 2 4 6 8 10 11 13 13 13 14 15 14 15 21 27 30 30 30 30 30 31 31 31 30 31 31 30 30 30 31 32 32 32 32 31 30 29
3 2 3 7 10 12 13 12 11 11 13 16 18 17 17 17 18 20 23 23 22 24 23 23 22 21 20 19 19 18 17 17 17 18 16 11 7 8 10 9 7 5 4 4 5 5 5 4 4 5 4 4 5 6 8 9 11 12 11 12 14 14 14 18 24 28 28 28 27 27 27 27 26 26 26 26 27 27 29 29 30 30 30 29 29 28 27
3 2 5 12 16 14 13 12 13 14 15 15 16 16 16 16 15 17 21 22 22 23 23 22 22 21 19 18 17 16 16 16 16 18 16 11 6 6 8 8 6 5 5 5 5 6 7 6 6 6 6 6 5 6 7 8 9 11 11 10 10 12 13 17 21 23 23 23 23 22 22 22 22 23 22 22 23 26 27 28 28 29 28 27 27 27 26
3 2 5 13 16 13 10 15 21 19 16 15 15 15 16 17 17 16 18 20 21 21 21 21 21 20 18 17 16 15 15 15 15 15 14 10 7 6 6 6 6 5 4 3 4 5 5 5 6 5 6 7 7 6 7 6 6 10 13 11 10 12 13 16 19 20 18 18 18 19 20 21 22 22 22 22 23 24 25 25 25 25 25 25 25 26 25
4 4 8 14 10 7 10 20 25 22 18 15 14 14 15 16 16 16 17 18 19 18 17 19 19 18 16 15 14 14 14 13 13 14 12 10 8 6 5 4 4 5 4 3 4 4 3 5 7 6 6 7 6 5 7 6 5 8 12 13 12 13 14 15 17 18 18 17 17 18 20 21 22 22 22 22 23 23 23 23 23 22 22 22 23 24 23
7 10 15 16 10 7 14 23 25 22 19 16 13 12 12 11 12 13 15 16 18 18 17 16 15 15 14 13 12 13 12 9 10 12 11 9 8 7 5 4 4 5 4 3 4 4 4 5 6 6 7 7 4 4 6 7 7 7 10 12 13 14 15 16 15 16 16 18 19 19 20 21 23 23 23 23 23 21 20 21 21 22 22 21 22 22 22
13 18 23 24 18 13 16 23 26 24 22 20 18 15 12 11 11 12 12 14 16 17 18 16 13 12 13 11 10 10 10 8 8 10 10 9 8 7 5 4 5 4 3 4 5 4 5 6 6 7 8 6 4 4 4 6 8 7 8 11 12 13 14 15 15 14 15 18 20 20 19 22 24 25 25 24 22 19 17 18 18 20 20 20 20 21 20
20 25 29 30 26 22 20 23 26 25 21 20 20 17 14 11 10 10 10 12 12 14 15 15 12 11 13 12 10 9 10 9 8 9 9 7 7 7 6 5 4 4 4 4 3 2 4 6 6 8 10 8 4 5 3 4 6 7 8 10 11 11 12 13 15 16 16 19 20 18 17 22 25 24 25 25 23 20 18 17 16 17 17 15 15 15 16
28 30 32 33 34 32 26 24 25 23 18 18 19 17 15 13 11 10 11 11 11 11 12 13 12 11 12 12 10 9 10 9 6 6 7 6 5 5 5 5 5 3 3 3 2 1 3 6 6 9 11 7 1 4 3 4 5 6 7 9 12 13 13 14 17 18 17 18 19 16 16 21 24 22 22 23 23 22 21 18 16 15 13 11 9 8 8
33 32 29 27 29 30 26 22 23 22 19 18 19 19 18 18 16 15 15 14 13 12 11 11 11 11 11 11 10 10 11 10 7 6 6 6 6 5 5 5 4 3 2 2 1 1 2 5 6 6 5 3 5 5 5 7 9 9 9 10 12 14 14 15 18 19 17 16 16 15 16 20 21 19 18 18 17 18 18 16 14 13 11 10 8 7 5
35 33 27 24 27 29 28 26 27 26 23 21 21 21 20 19 18 17 16 15 14 13 12 11 10 10 10 11 10 10 11 11 9 7 6 5 4 5 5 6 5 3 2 2 3 4 5 6 9 8 4 5 7 6 6 9 11 11 11 11 12 14 14 15 17 18 17 17 16 16 17 19 18 17 17 16 15 15 14 13 13 13 12 11 11 10 9
35 32 31 33 36 34 30 30 32 33 31 28 26 25 22 20 19 18 17 16 14 13 12 11 10 10 10 10 10 9 9 9 9 9 9 8 5 5 6 7 6 5 5 6 7 7 6 6 8 10 9 8 7 5 5 8 11 12 11 11 12 13 13 13 14 15 16 17 18 18 19 18 18 18 19 19 17 14 13 12 12 13 12 12 11 10 10
33 30 30 33 33 30 29 30 32 33 33 32 29 26 24 22 20 19 18 17 16 15 14 11 10 10 10 9 9 7 6 6 6 7 9 9 8 7 6 6 8 9 8 9 10 9 9 9 8 8 8 9 8 5 4 6 8 9 8 9 10 11 10 9 10 12 15 18 20 21 21 21 19 19 19 18 15 12 10 10 10 11 11 10 9 9 8
26 25 26 29 27 25 26 30 31 30 31 31 29 27 26 24 23 22 20 19 19 19 16 13 11 12 11 9 7 7 5 4 3 4 5 5 6 6 7 8 10 11 12 12 12 12 12 12 11 10 8 7 8 9 9 11 11 11 11 11 10 10 10 10 10 13 15 17 18 19 20 20 18 16 15 13 11 10 9 8 8 8 8 7 6 6 5
13 17 20 22 24 23 23 25 27 28 28 28 28 28 27 26 25 24 22 21 20 20 17 14 12 12 10 8 5 5 5 5 5 4 3 5 7 9 12 15 16 16 17 17 16 15 14 13 13 13 12 10 10 12 14 15 14 13 15 15 15 14 14 13 13 14 15 16 15 16 17 17 16 14 12 10 10 10 10 8 6 4 4 3 4 4 4
12 10 16 19 20 21 23 25 26 27 26 27 28 28 27 26 26 24 23 22 21 19 17 16 14 12 10 8 5 3 3 5 7 8 10 13 15 16 17 19 20 21 23 22 19 17 16 14 13 14 16 16 15 14 15 14 13 14 16 17 16 16 16 15 15 16 17 18 17 16 16 16 16 15 14 13 12 11 9 7 4 3 3 5 5 6 6
27 11 6 15 19 20 21 23 24 25 26 25 26 26 26 25 24 23 23 23 23 21 19 17 16 14 12 9 6 4 6 11 14 16 17 19 20 21 21 21 20 22 25 26 23 19 16 14 13 14 17 18 18 17 17 16 16 16 17 16 16 17 18 18 17 17 18 19 20 19 17 17 16 15 15 15 14 13 11 9 5 3 4 6 7 8 8
41 33 20 6 6 13 16 17 18 20 21 22 22 23 24 24 24 24 25 25 23 21 20 19 17 15 12 9 7 9 14 18 20 20 20 19 20 20 21 21 21 23 25 27 25 22 19 16 14 14 15 16 16 17 18 18 17 16 14 14 15 17 19 19 18 18 17 17 18 18 17 17 16 15 15 15 14 14 13 12 10 8 8 8 7 8 9
45 41 37 31 21 8 3 8 13 17 19 20 22 22 22 24 25 25 25 25 23 22 22 20 17 14 11 11 13 16 21 24 24 22 21 20 18 18 18 18 20 23 25 27 27 25 22 19 17 16 17 17 17 17 17 18 18 17 16 15 15 16 17 18 18 17 16 15 15 15 15 14 15 15 15 15 15 15 15 15 15 15 15 14 11 9 8
48 43 40 40 37 31 24 14 3 7 13 18 22 22 21 22 23 24 25 25 23 23 22 19 17 17 18 19 21 21 23 25 24 23 21 19 17 16 16 16 16 20 24 27 27 26 24 22 21 21 22 23 22 21 21 21 20 19 18 17 16 16 16 16 15 14 13 12 12 12 11 10 10 11 11 12 12 12 12 12 12 13 13 13 11 10 9
47 46 44 42 42 41 39 34 26 15 6 6 13 18 21 21 20 23 25 25 22 22 23 21 22 25 26 26 26 25 24 24 23 21 20 18 15 16 18 20 20 21 24 24 24 24 24 23 23 23 24 23 23 23 23 24 23 22 20 19 18 17 16 15 14 14 12 10 8 6 6 6 6 6 6 7 7 7 7 7 7 7 7 7 6 6 6
43 45 46 46 46 45 44 43 40 34 27 20 12 6 12 17 17 15 17 18 18 20 23 27 30 32 31 30 28 27 27 26 24 22 22 23 22 23 25 27 25 24 23 20 20 21 21 21 22 24 24 23 22 21 21 21 22 23 22 20 18 17 17 16 16 15 12 8 6 4 4 3 3 3 3 4 3 3 3 2 2 2 3 3 3 4 4
39 40 43 44 46 47 47 46 45 44 41 37 33 27 17 12 14 14 13 12 16 23 30 36 37 35 33 33 32 30 29 29 27 26 28 29 30 30 31 30 26 23 21 19 18 19 19 18 20 21 22 22 21 20 19 18 19 20 21 21 20 19 18 16 15 14 12 8 6 5 6 7 7 7 7 5 4 4 3 3 2 2 2 3 3 4 5
35 36 38 40 41 43 45 45 46 46 46 43 42 41 38 32 28 28 29 28 27 30 35 38 38 36 35 35 35 32 31 31 30 30 31 32 32 33 34 32 28 25 22 20 19 20 19 17 17 18 18 19 19 18 17 17 18 19 20 20 19 18 17 15 14 13 11 9 8 9 11 12 13 14 13 12 11 11 11 10 10 10 9 8 8 8 7
32 34 35 36 38 38 39 42 44 46 47 46 45 45 45 45 43 42 41 40 38 36 37 40 41 40 39 38 37 36 34 33 32 32 32 32 33 34 35 33 29 26 24 22 22 22 22 21 20 18 17 17 17 16 15 16 17 18 19 19 18 17 17 17 16 15 14 13 13 14 15 15 15 15 15 15 15 15 15 15 16 17 17 16 16 15 14
28 30 31 32 34 35 36 37 39 41 43 45 45 44 45 46 47 46 44 42 40 39 39 41 41 40 39 38 38 38 36 35 33 33 33 32 32 32 33 31 28 26 25 25 25 25 25 23 22 20 18 18 17 16 15 16 17 18 18 19 19 19 19 20 20 19 18 18 19 19 19 19 18 18 17 17 17 17 17 17 18 18 18 18 18 17 17
24 26 28 29 30 32 34 35 36 37 39 40 41 41 42 43 44 44 44 43 41 41 42 43 43 41 40 39 38 37 35 34 33 33 33 33 32 30 29 27 26 25 24 24 25 26 25 23 21 19 18 17 17 17 17 18 18 18 19 19 20 20 21 22 22 22 21 20 20 20 20 20 20 20 19 19 19 18 17 17 17 16 16 16 16 16 16
23 23 25 26 27 28 30 31 32 33 33 35 37 38 39 39 39 39 39 39 39 39 41 42 42 41 40 38 37 35 34 32 32 31 32 33 32 29 26 25 25 24 22 22 23 24 23 21 19 18 17 17 17 17 18 18 18 18 19 20 20 20 21 21 21 21 21 21 20 20 20 19 19 20 20 19 19 18 18 17 17 16 15 15 15 15 15
24 22 22 24 25 25 25 27 28 29 30 31 33 34 34 36 36 36 36 36 36 36 37 37 37 36 35 33 32 31 31 30 30 29 29 29 28 24 22 22 23 22 21 22 23 22 20 17 15 15 15 15 15 16 17 18 18 18 18 18 18 18 18 19 18 18 18 18 19 19 19 18 18 18 18 17 16 16 16 16 16 16 16 15 15 15 14
23 23 22 22 22 21 21 23 25 27 28 30 30 29 29 30 32 33 33 32 32 33 33 34 33 32 31 30 29 28 28 27 27 26 24 23 22 20 19 19 19 18 18 20 21 21 19 17 16 15 15 14 15 16 17 17 18 18 19 19 18 18 17 17 17 17 17 18 18 19 20 21 22 21 20 19 17 15 14 13 13 14 14 14 14 14 13
20 22 22 22 21 20 19 19 21 23 24 25 26 25 26 27 28 28 29 29 29 30 30 30 30 29 28 27 27 26 26 26 25 24 21 21 21 20 18 16 15 14 14 15 16 16 16 16 16 16 16 16 17 17 18 19 20 21 21 21 21 21 20 19 19 19 20 20 20 20 21 21 21 21 21 21 21 19 18 16 14 12 12 12 13 13 13
18 19 20 21 22 21 21 20 20 20 20 20 20 21 22 23 25 25 26 26 27 27 27 27 26 26 25 24 24 24 24 24 23 21 19 19 20 20 18 16 15 14 13 13 14 14 14 14 14 14 15 16 18 18 18 18 20 21 22 22 21 21 20 19 19 19 19 19 19 19 19 19 19 19 19 20 21 21 20 18 16 14 13 13 13 14 13
15 16 18 19 20 21 21 21 21 20 18 18 18 17 17 18 20 21 22 22 24 25 25 25 24 24 23 22 21 20 20 20 20 19 18 18 18 18 17 17 17 16 16 16 17 16 16 15 15 15 15 16 17 18 18 18 18 18 19 20 20 20 19 18 16 16 16 16 18 19 20 20 20 20 19 19 18 16 14 13 14 15 15 15 14 14 14
14 15 15 16 17 18 18 18 18 18 18 17 16 16 17 18 18 17 17 18 19 20 21 21 21 20 20 20 19 18 18 18 18 18 18 19 18 18 18 19 18 18 17 18 19 19 19 18 18 18 18 18 18 18 17 17 17 17 17 18 18 18 19 18 18 17 16 15 15 17 19 19 20 20 19 18 17 15 13 11 12 14 15 15 15 14 13
15 14 14 15 15 16 17 17 16 16 16 16 16 15 16 18 19 17 15 15 15 16 17 18 18 17 16 17 17 17 17 17 17 17 17 18 17 17 18 19 19 19 18 18 18 18 19 19 19 19 19 19 19 19 18 17 16 17 17 18 18 18 18 18 19 19 18 16 15 15 15 16 16 16 17 17 17 17 16 15 14 13 13 13 13 14 13
Wind_Direction
289 276 283 286 245 182 174 189 210 202 195 209 214 185 172 157 142 208 209 153 156 212 211 216 220 161 122 118 111 102 100 101 123 160 165 162 164 167 168 172 175 178 180 184 188 192 196 200 204 207 207 204 202 201 205 208 211 214 217 218 218 219 220 222 223 224 224 225 226 226 227 227 228 229 229 229 229 230 231 233 235 235 234 236 239 240 241
295 291 288 290 292 252 169 186 208 217 200 199 211 209 173 157 163 192 178 158 171 193 189 210 166 123 119 117 112 104 102 101 104 123 137 140 150 160 165 170 175 178 181 185 189 192 195 198 201 204 204 202 202 202 205 208 211 213 215 217 218 218 219 221 223 224 224 224 225 225 226 227 228 229 229 229 229 229 230 233 235 236 235 235 236 238 240
292 310 317 302 290 278 275 189 202 219 214 194 202 215 193 156 173 191 165 156 183 178 146 126 100 102 99 94 96 97 102 108 111 115 116 120 136 153 162 168 174 179 183 188 191 193 196 198 200 200 201 202 202 203 205 208 211 212 213 217 218 218 219 221 224 225 225 224 225 225 226 227 228 229 229 229 228 228 230 232 235 236 237 236 236 237 239
311 328 309 290 291 290 291 276 213 215 227 200 193 205 209 171 171 182 150 144 184 153 116 100 88 87 83 75 73 77 82 89 104 123 130 129 136 148 158 166 172 177 182 187 191 195 198 200 201 200 201 202 203 205 207 210 212 212 214 217 219 220 220 221 224 226 226 225 225 226 226 226 228 229 229 228 228 228 229 231 233 236 238 238 237 236 237
320 344 294 277 300 325 271 254 216 124 332 248 192 191 213 191 166 171 161 179 198 150 108 96 87 78 76 77 71 74 75 71 77 99 123 134 138 147 157 163 167 171 176 181 189 196 199 202 203 202 202 202 204 207 209 210 213 214 215 217 219 221 220 221 224 226 227 227 226 226 227 227 228 228 228 228 228 228 230 231 233 235 238 239 239 237 237
308 329 311 286 304 299 238 248 61 72 11 302 199 183 203 209 164 156 161 175 182 136 117 112 104 92 87 85 76 75 78 75 72 80 104 121 126 136 152 159 165 172 178 182 188 193 196 199 202 202 203 204 207 210 211 212 213 215 216 218 220 222 222 222 224 226 227 229 228 228 229 228 228 228 228 228 229 229 230 231 231 234 236 238 239 239 238
293 322 320 302 277 254 238 52 37 42 11 332 48 124 182 235 314 177 161 130 86 94 109 110 105 98 91 83 71 66 70 74 74 71 80 98 106 117 138 154 169 177 177 175 179 184 189 197 200 201 204 207 210 213 213 214 214 216 218 219 220 224 225 223 223 224 226 229 230 230 230 229 228 228 228 229 229 229 229 230 232 233 235 237 239 241 241
302 331 292 223 247 282 321 49 29 6 334 321 53 60 46 356 347 330 171 132 104 85 85 98 104 98 87 73 61 60 65 70 72 68 68 81 90 97 107 116 132 153 159 156 163 176 185 195 203 207 209 210 212 215 215 215 216 218 220 221 222 224 227 226 224 223 224 226 228 231 232 230 229 229 229 230 230 229 229 230 232 233 235 237 239 241 242
345 333 286 253 300 323 4 21 1 343 328 310 93 69 30 6 1 357 6 124 117 105 92 96 100 93 82 66 52 55 61 65 68 69 70 77 85 89 94 100 110 132 150 153 158 171 177 175 182 201 212 214 216 218 218 219 220 219 221 223 223 225 228 228 226 225 224 224 225 228 231 232 232 232 232 231 231 230 230 230 230 232 234 237 238 240 241
337 325 298 285 297 356 5 347 337 328 321 328 90 83 35 1 357 2 3 33 99 110 112 106 99 86 74 63 48 52 56 59 63 67 68 68 73 78 82 90 94 104 129 142 149 167 180 179 172 181 196 208 215 219 220 221 222 223 224 225 225 226 229 230 229 227 226 225 225 226 228 232 234 234 234 234 233 232 231 231 232 233 234 236 237 238 240
308 315 323 312 263 42 352 339 338 330 317 316 79 78 36 346 341 1 12 14 28 64 92 94 94 85 74 77 55 52 56 58 57 61 63 60 60 60 57 65 73 74 86 103 108 121 167 191 190 190 193 199 210 219 222 222 222 223 225 226 227 228 229 231 232 230 228 227 226 226 227 230 234 235 236 236 236 235 234 234 234 234 234 235 236 237 239
294 286 306 338 92 31 346 337 336 325 314 315 71 73 22 325 335 3 20 23 22 33 57 71 76 77 80 85 65 57 61 61 58 59 60 56 55 49 33 35 52 56 64 75 75 64 60 195 207 211 210 209 213 220 224 223 223 225 226 226 228 230 231 232 233 233 232 229 228 228 228 228 231 234 236 236 236 236 236 236 237 236 235 236 237 238 240
307 305 307 331 109 20 348 338 336 328 319 352 70 78 271 307 343 11 23 30 29 30 42 57 60 59 63 68 66 62 61 60 57 57 56 56 59 52 32 18 28 37 48 60 60 46 278 236 229 225 221 219 222 224 224 221 222 226 230 229 228 229 231 233 234 234 234 232 230 230 230 229 229 232 235 235 235 236 237 237 238 238 237 238 238 239 241
301 306 44 333 356 359 343 339 350 358 6 70 64 14 285 343 10 19 20 27 34 34 41 49 52 54 55 56 59 59 56 55 53 49 48 54 61 53 32 11 18 33 48 61 72 227 251 252 240 231 231 232 232 233 232 225 221 224 230 232 230 228 228 231 233 235 235 233 231 230 229 229 228 229 232 235 235 236 237 238 239 240 240 240 240 241 242
318 324 12 29 133 336 341 349 7 21 46 93 7 358 22 22 25 22 17 23 29 33 44 49 47 49 49 48 51 51 49 51 51 48 49 53 54 43 22 6 14 36 50 40 304 266 278 285 270 243 237 239 242 245 242 236 230 228 230 231 231 229 228 228 230 232 234 233 231 229 229 229 228 228 231 233 234 236 237 238 240 241 242 242 242 243 243
17 60 6 40 191 318 351 12 17 16 68 80 50 36 34 27 26 22 16 17 21 27 42 49 45 45 45 44 47 46 42 42 45 47 51 54 51 37 11 357 5 32 59 24 339 305 307 313 311 276 243 239 239 239 239 239 237 231 229 227 226 226 227 228 229 230 231 232 231 229 229 228 227 228 230 233 235 237 238 239 240 241 241 242 243 243 244
359 202 232 247 304 339 4 22 7 359 41 64 52 43 37 27 25 24 16 14 16 21 31 40 41 42 41 39 40 41 37 33 32 36 44 54 51 34 4 353 3 23 66 27 355 325 324 330 117 131 185 210 215 221 226 232 235 230 228 227 223 220 224 228 229 229 229 230 229 228 228 227 227 228 230 232 234 236 238 239 239 240 241 241 242 244 244
328 272 249 299 357 1 7 13 3 3 27 45 43 41 35 25 24 23 17 16 18 19 25 32 34 36 36 33 30 30 29 26 22 22 26 36 39 25 4 357 5 15 28 7 343 320 306 256 216 213 196 186 197 210 215 219 223 222 225 229 227 220 219 224 228 227 226 226 225 224 225 225 226 229 231 232 234 236 237 238 238 239 240 240 241 242 243
358 339 336 344 347 348 343 339 351 16 36 40 37 35 31 26 26 24 20 17 17 19 23 28 29 31 31 28 24 23 22 19 15 13 10 7 15 19 7 357 359 10 15 358 330 316 315 294 256 252 243 205 199 208 213 217 216 211 212 222 227 223 217 219 222 221 220 219 218 217 220 223 225 228 231 234 236 236 236 236 237 237 237 237 238 238 239
356 312 324 332 324 310 306 327 4 31 40 35 28 28 27 20 16 19 20 17 14 15 19 21 22 23 23 20 18 18 18 13 6 6 5 359 356 5 1 351 347 352 3 4 343 328 327 315 281 262 259 252 233 212 211 220 218 209 201 200 207 211 208 208 211 213 213 213 212 212 215 218 222 225 229 233 235 235 234 234 234 234 233 233 234 234 235
319 291 353 358 342 318 324 4 14 15 18 21 19 18 19 13 6 4 8 8 7 9 14 16 15 14 16 15 10 11 12 4 356 359 2 359 355 354 349 346 344 338 341 353 342 339 346 331 303 283 277 271 254 224 210 208 206 206 201 190 185 190 193 195 198 201 204 205 206 207 208 209 213 218 220 223 227 230 232 231 232 233 232 232 231 231 232
312 323 2 10 358 314 340 0 357 348 352 7 12 7 8 11 7 356 351 353 354 356 6 12 8 5 7 8 2 0 1 355 349 350 350 345 339 334 334 345 339 321 322 341 340 342 351 329 312 299 291 283 265 232 214 198 183 195 200 195 188 187 190 193 196 199 202 203 205 208 208 208 211 212 211 212 216 223 227 227 227 229 229 228 227 228 228
302 312 330 342 340 315 330 335 329 326 334 342 346 350 353 358 357 347 339 339 338 337 345 358 2 358 358 359 355 349 344 341 343 341 333 329 332 330 333 336 320 311 318 324 325 332 328 315 312 312 311 303 274 231 214 192 173 175 191 196 193 192 194 195 195 198 201 202 205 210 211 212 214 212 206 202 204 212 216 216 218 220 221 221 222 223 225
304 306 313 318 315 310 317 314 307 308 316 316 316 322 324 326 334 334 326 324 325 327 333 343 351 350 345 344 346 340 333 334 340 329 317 318 325 322 311 296 286 290 292 285 297 312 308 303 307 313 318 312 252 219 208 184 171 162 175 192 195 193 195 195 193 195 198 200 204 208 208 209 211 211 206 198 192 192 197 201 203 206 207 208 211 214 218
303 301 304 305 301 298 300 297 292 297 304 305 305 309 309 314 326 333 330 330 329 328 329 333 337 338 334 334 335 331 326 327 325 313 304 308 314 309 300 284 266 256 262 275 285 287 287 300 312 318 324 323 249 209 186 166 174 165 163 175 178 176 181 186 187 190 194 199 203 204 200 201 203 204 204 201 193 186 185 187 191 195 196 198 203 208 213
298 295 296 297 293 289 289 285 283 286 292 295 297 300 302 304 307 311 317 323 324 325 326 325 323 323 328 332 332 323 317 315 309 307 310 312 307 300 302 306 298 274 257 262 254 250 296 318 323 318 326 339 259 189 136 114 141 152 157 166 164 162 166 172 178 183 188 195 201 200 192 193 194 193 194 197 196 191 185 182 183 186 189 191 196 206 218
293 289 289 290 286 281 277 275 276 279 282 286 291 294 295 296 296 298 300 300 300 304 307 309 314 316 319 320 316 308 305 304 304 311 312 305 297 292 291 296 294 275 237 244 233 138 34 25 14 342 334 43 101 127 129 125 125 127 139 156 160 158 159 164 168 171 171 174 180 181 178 182 185 183 181 182 183 183 180 176 173 171 168 168 168 168 179
287 281 272 264 263 268 271 271 273 274 273 276 284 288 289 292 295 296 297 297 298 298 294 295 304 309 311 315 315 308 302 300 301 300 291 289 294 281 259 254 255 234 193 160 124 111 99 75 60 51 64 101 98 97 123 140 138 133 137 149 155 156 159 162 164 163 157 153 155 160 165 170 172 169 164 159 158 160 161 160 160 158 154 154 156 154 156
284 278 268 256 254 259 265 268 269 269 267 270 277 282 283 285 288 290 291 292 293 296 295 295 296 293 295 306 312 306 299 300 298 287 275 274 273 252 239 237 231 208 172 146 129 115 108 99 83 75 83 99 96 84 105 136 146 147 148 149 146 143 146 150 151 150 148 145 144 146 149 151 152 150 146 143 145 150 151 149 150 150 147 147 150 154 156
283 275 265 258 255 253 254 257 261 262 262 262 266 272 276 277 278 283 286 287 287 289 292 295 293 284 283 295 304 297 291 294 285 272 271 273 264 249 233 215 204 192 164 139 129 115 102 101 104 98 93 98 106 108 111 127 138 142 146 150 150 147 146 145 140 139 142 141 140 139 138 138 141 145 147 145 146 150 152 152 155 155 149 144 145 149 150
281 266 256 252 251 247 245 247 251 255 258 255 252 257 265 267 268 273 278 281 284 285 286 291 289 277 275 288 298 289 278 275 263 261 272 271 247 220 185 159 158 158 148 136 126 115 107 105 105 103 99 103 115 120 119 119 122 125 127 132 137 140 142 137 128 128 134 137 136 135 135 133 134 138 143 145 144 142 143 151 160 159 150 143 142 138 130
284 255 243 240 240 239 240 243 244 247 250 246 241 244 251 255 259 265 270 273 276 279 282 284 278 267 267 280 292 284 272 261 243 223 186 153 145 140 132 124 118 119 127 131 124 113 113 113 106 100 102 105 110 115 117 118 120 121 118 115 113 116 120 120 116 117 122 127 129 131 131 130 128 127 126 128 131 133 135 140 149 147 134 124 108 87 72
343 260 230 225 227 229 233 238 239 241 242 239 234 236 240 245 249 255 260 264 268 270 272 272 263 254 258 266 266 264 248 218 190 157 134 129 127 124 122 117 105 99 106 117 121 116 112 111 110 110 110 108 108 114 120 122 121 118 116 116 119 123 125 125 123 122 122 123 127 133 135 134 133 130 126 125 129 133 137 139 136 109 81 77 70 55 41
24 19 239 225 222 223 230 236 238 240 240 237 233 233 236 238 240 244 250 258 261 261 262 261 253 245 246 248 233 187 161 156 142 123 114 115 117 117 118 115 103 91 95 107 115 114 107 105 113 123 122 115 110 110 112 117 122 121 119 120 123 125 128 130 131 129 123 120 122 129 132 133 133 134 134 133 132 134 141 147 148 134 100 85 67 48 40
35 42 46 50 224 235 248 253 246 238 234 232 232 234 236 237 237 238 242 247 249 251 255 253 241 230 226 220 193 151 139 140 134 121 115 116 116 114 117 116 104 92 94 102 105 103 103 108 116 127 130 123 113 105 103 109 118 121 119 118 116 116 120 123 123 121 119 118 120 122 121 121 125 130 136 137 132 128 129 130 127 132 136 121 89 63 58
32 39 45 48 52 54 285 263 251 242 238 236 236 238 239 240 238 237 239 242 244 246 246 239 221 202 188 177 161 137 125 128 132 129 122 120 121 120 119 113 97 86 89 95 96 95 100 107 114 120 123 118 111 106 103 103 107 110 112 114 112 110 112 113 112 111 114 117 118 117 115 118 124 128 133 136 132 128 127 123 118 123 132 133 128 123 120
31 35 40 45 50 54 56 59 79 230 238 239 239 239 239 240 239 237 237 239 238 235 230 214 188 169 156 146 140 132 125 124 127 125 117 116 124 126 118 108 95 82 78 81 84 89 97 106 113 118 117 111 107 107 106 105 106 108 108 107 106 104 105 105 105 106 107 108 111 116 121 128 131 129 130 135 138 139 141 137 130 130 135 140 147 155 161
35 36 39 42 47 49 52 57 65 75 99 204 228 233 234 235 235 233 232 230 225 217 208 186 159 148 143 134 126 124 123 120 119 117 112 112 122 121 106 96 91 84 76 74 79 86 94 104 112 116 115 112 110 111 112 114 115 114 110 107 105 103 102 101 100 98 96 97 104 116 124 129 130 128 132 138 143 147 151 152 153 154 157 161 170 177 183
38 39 39 40 43 46 50 54 57 60 65 74 91 152 214 222 216 205 206 214 212 198 181 161 143 135 133 127 119 113 111 110 110 110 107 104 106 105 97 88 85 85 85 87 90 89 91 100 108 110 109 111 113 116 118 120 118 116 114 113 113 110 107 107 105 100 97 101 111 115 114 122 140 158 167 167 168 165 165 171 191 210 221 229 235 242 244
41 42 43 43 43 44 46 49 52 55 58 64 69 75 93 136 153 137 128 148 165 158 147 142 139 134 128 123 117 110 106 107 108 106 104 102 100 99 94 87 84 87 92 97 98 94 93 100 106 105 104 106 109 112 115 118 119 118 116 115 116 114 112 111 111 108 106 110 111 97 90 95 102 105 107 108 104 93 76 56 39 9 327 314 307 300 293
44 45 47 49 49 48 47 48 50 53 57 60 63 67 76 89 99 94 86 90 106 116 118 123 127 124 118 117 115 111 108 108 107 105 103 100 96 92 88 83 82 85 91 96 98 98 97 98 99 99 100 102 104 107 112 115 117 118 115 113 113 114 111 109 108 107 107 105 95 84 85 92 94 92 89 87 83 78 73 67 63 59 52 46 43 37 29
48 48 49 52 54 55 54 52 51 52 55 57 60 64 70 78 84 84 80 80 85 90 93 99 104 104 102 105 107 106 104 103 103 101 97 93 90 88 86 83 82 85 88 91 93 93 92 90 90 92 96 100 103 109 115 117 116 115 112 109 107 106 106 103 99 97 97 96 90 84 85 90 92 90 86 82 77 73 70 67 64 61 58 55 51 46 43
51 53 53 54 56 58 60 59 58 57 56 57 60 62 65 71 76 78 78 77 78 80 83 88 92 92 92 94 95 94 93 93 94 94 92 89 87 87 87 87 86 86 86 86 85 85 84 85 86 88 93 98 102 108 113 115 115 114 113 111 108 105 104 101 96 91 87 86 85 84 84 85 86 86 84 81 77 74 71 68 65 62 59 57 54 51 49
53 57 59 59 59 60 62 63 63 62 62 62 63 64 64 66 70 72 73 73 73 74 77 80 82 82 83 84 84 85 86 86 87 88 88 87 85 84 85 87 87 85 83 82 81 79 79 81 85 89 92 95 98 102 106 109 111 113 112 111 111 110 107 104 100 94 88 83 81 80 82 82 83 84 84 82 81 79 76 73 70 68 66 63 58 54 51
52 56 60 62 61 61 64 67 67 67 67 67 67 67 67 67 68 69 69 69 69 69 71 73 74 74 75 76 77 79 81 82 82 82 82 81 79 79 81 85 85 83 82 81 79 77 76 78 81 86 90 92 93 96 98 100 104 107 108 109 110 110 108 107 105 102 97 92 87 82 80 80 81 83 84 84 82 79 76 73 71 70 68 66 62 57 53
53 54 58 61 61 61 64 67 68 69 71 71 69 68 69 70 71 71 71 70 69 68 68 69 70 70 69 70 71 73 76 77 77 76 75 76 77 78 80 82 81 80 80 81 80 78 78 78 78 81 85 89 91 93 95 96 98 100 101 103 104 105 104 105 105 104 101 99 94 87 80 74 71 71 72 73 73 72 71 72 71 69 68 68 67 63 59
54 56 56 58 60 60 62 65 66 66 68 70 71 71 72 73 74 75 76 75 75 73 72 71 71 69 66 65 65 65 66 68 70 70 70 71 73 74 74 73 71 69 70 75 78 79 80 81 83 84 85 88 91 93 94 96 96 95 94 94 94 93 94 94 95 95 95 93 88 81 73 66 62 61 61 59 57 54 54 57 62 66 68 69 68 66 62
54 57 56 56 56 56 58 64 68 70 72 73 74 76 76 75 75 75 75 75 76 75 74 74 74 72 69 66 62 59 58 60 65 67 68 67 66 65 64 65 65 64 63 67 72 74 73 74 79 83 87 90 92 93 95 96 96 94 93 92 89 86 85 85 84 85 86 85 81 77 73 69 66 64 63 61 59 56 51 47 46 50 54 56 58 59 57
53 55 54 54 54 53 53 56 61 66 72 76 78 80 80 77 75 74 73 72 73 73 73 73 74 74 73 71 68 62 56 56 61 68 74 73 70 68 67 68 72 77 78 77 77 76 73 73 75 78 82 86 87 88 91 96 98 97 96 95 93 90 88 88 88 89 89 85 80 77 77 76 73 69 66 65 65 64 60 54 47 41 36 35 37 39 39
55 55 52 52 53 52 51 52 53 55 58 63 68 74 77 76 75 76 75 74 73 73 73 71 71 71 72 72 72 69 64 60 61 66 72 73 70 68 66 68 73 81 86 87 86 83 81 79 77 77 80 84 85 84 84 89 95 98 99 98 96 94 91 89 90 92 92 90 86 82 79 77 76 72 66 60 60 62 63 56 43 30 21 16 18 22 25
57 56 51 51 54 52 50 49 49 50 53 56 58 61 63 66 70 75 77 75 75 76 77 75 74 72 70 69 68 68 68 67 66 67 69 71 69 64 61 63 71 79 84 86 87 87 83 80 78 79 81 83 84 83 82 84 87 92 95 96 95 94 91 86 81 80 83 89 91 88 83 80 80 78 72 64 58 53 46 37 30 24 17 11 10 15 20
58 55 51 50 50 48 47 46 46 49 54 56 55 54 56 58 62 67 71 73 73 73 74 76 76 74 71 69 68 67 67 69 70 70 69 69 68 64 58 57 64 73 78 80 83 87 87 85 83 83 84 84 82 79 78 78 82 86 89 90 89 89 89 86 80 77 76 79 82 81 80 80 81 81 79 75 68 59 52 49 46 39 28 15 5 4 11
Height
1374 1365 1360 1355 1353 1353 1354 1360 1364 1364 1365 1369 1374 1379 1378 1379 1392 1399 1388 1383 1391 1386 1377 1374 1371 1368 1371 1371 1370 1371 1372 1372 1375 1378 1382 1387 1391 1395 1398 1402 1406 1410 1414 1417 1421 1425 1428 1432 1436 1438 1441 1444 1447 1450 1453 1455 1459 1461 1464 1466 1469 1471 1473 1474 1476 1479 1482 1484 1486 1489 1492 1495 1497 1499 1502 1504 1507 1509 1511 1512 1515 1517 1518 1520 1521 1523 1524
1372 1364 1359 1356 1355 1355 1355 1358 1359 1360 1362 1365 1369 1373 1372 1373 1381 1383 1381 1384 1385 1379 1373 1371 1368 1366 1367 1368 1369 1372 1374 1374 1377 1382 1385 1389 1392 1395 1399 1402 1406 1410 1413 1417 1420 1424 1427 1431 1434 1436 1439 1441 1444 1447 1449 1452 1455 1458 1461 1463 1465 1467 1469 1470 1473 1476 1479 1481 1483 1486 1488 1490 1493 1495 1498 1500 1503 1505 1507 1509 1511 1513 1515 1516 1517 1518 1520
1377 1367 1362 1360 1360 1359 1359 1360 1358 1358 1361 1362 1366 1370 1369 1372 1377 1377 1379 1385 1383 1374 1368 1368 1368 1366 1368 1371 1372 1374 1377 1378 1380 1385 1389 1391 1394 1397 1400 1404 1407 1410 1413 1416 1419 1422 1426 1429 1432 1435 1437 1439 1442 1445 1447 1450 1453 1456 1459 1460 1461 1464 1466 1468 1471 1473 1475 1478 1480 1482 1484 1486 1489 1491 1494 1496 1499 1501 1503 1505 1507 1509 1511 1512 1513 1514 1516
1386 1371 1369 1370 1362 1359 1362 1363 1360 1361 1363 1363 1363 1365 1366 1370 1375 1377 1381 1386 1383 1372 1366 1369 1370 1369 1372 1376 1376 1377 1380 1381 1383 1386 1389 1393 1396 1399 1402 1405 1408 1411 1413 1416 1418 1422 1425 1428 1431 1434 1436 1438 1440 1443 1445 1448 1451 1454 1456 1457 1459 1461 1463 1465 1467 1469 1472 1474 1476 1478 1480 1482 1485 1487 1490 1493 1495 1498 1499 1501 1504 1505 1507 1508 1509 1511 1512
1395 1377 1376 1373 1369 1375 1377 1365 1358 1359 1362 1361 1359 1360 1363 1363 1367 1377 1382 1380 1374 1366 1366 1371 1375 1375 1377 1378 1379 1381 1382 1384 1387 1389 1391 1394 1397 1400 1403 1406 1409 1411 1414 1416 1419 1421 1424 1426 1429 1432 1434 1436 1438 1440 1443 1446 1449 1452 1453 1455 1456 1458 1460 1462 1464 1466 1469 1471 1472 1474 1476 1479 1481 1484 1487 1489 1491 1493 1496 1498 1500 1501 1502 1504 1505 1507 1508
1406 1387 1379 1377 1385 1394 1380 1355 1348 1354 1359 1360 1358 1358 1361 1359 1359 1365 1369 1368 1365 1364 1366 1372 1375 1377 1378 1379 1381 1383 1385 1388 1391 1393 1395 1398 1401 1402 1404 1407 1409 1412 1414 1417 1419 1421 1424 1427 1429 1432 1434 1436 1438 1440 1442 1445 1447 1449 1451 1453 1454 1455 1456 1458 1460 1463 1465 1467 1469 1471 1473 1476 1478 1480 1483 1485 1487 1490 1492 1494 1496 1497 1498 1500 1502 1503 1504
1410 1394 1390 1398 1403 1388 1361 1346 1346 1350 1354 1356 1354 1356 1360 1364 1364 1361 1361 1365 1367 1366 1366 1369 1372 1375 1378 1381 1383 1384 1388 1391 1393 1396 1398 1400 1402 1404 1406 1408 1410 1413 1415 1418 1420 1422 1425 1427 1429 1431 1433 1435 1437 1439 1441 1443 1445 1446 1448 1450 1451 1452 1453 1455 1456 1459 1461 1463 1466 1468 1471 1473 1475 1477 1479 1481 1483 1486 1488 1490 1491 1493 1495 1496 1498 1499 1500
1409 1403 1402 1405 1394 1367 1349 1349 1351 1352 1356 1355 1357 1370 1378 1377 1374 1368 1362 1362 1364 1367 1369 1368 1371 1374 1377 1382 1387 1388 1391 1394 1396 1399 1400 1401 1403 1405 1408 1410 1411 1414 1417 1419 1421 1423 1425 1427 1428 1430 1432 1434 1435 1437 1439 1441 1442 1444 1446 1447 1448 1449 1450 1451 1453 1454 1457 1460 1463 1465 1468 1470 1472 1473 1475 1477 1479 1482 1484 1486 1488 1490 1491 1492 1494 1495 1497
1413 1415 1406 1390 1376 1366 1365 1371 1370 1368 1368 1360 1360 1379 1388 1380 1375 1374 1368 1362 1361 1366 1372 1371 1372 1374 1378 1387 1394 1395 1396 1398 1399 1402 1403 1404 1406 1407 1409 1412 1413 1415 1418 1420 1421 1423 1424 1426 1427 1428 1431 1432 1433 1435 1437 1438 1440 1442 1443 1444 1445 1446 1446 1448 1450 1451 1453 1456 1459 1462 1465 1466 1468 1469 1471 1473 1476 1478 1480 1483 1484 1486 1487 1488 1490 1491 1493
1414 1418 1411 1394 1388 1389 1390 1391 1381 1369 1367 1359 1355 1373 1391 1388 1382 1382 1380 1373 1367 1366 1370 1373 1372 1375 1387 1401 1404 1401 1400 1401 1401 1403 1405 1406 1408 1410 1412 1414 1415 1416 1418 1419 1420 1422 1423 1425 1426 1427 1430 1431 1432 1434 1434 1435 1438 1439 1440 1440 1442 1443 1444 1445 1447 1449 1450 1453 1455 1458 1461 1462 1464 1466 1468 1471 1473 1475 1477 1479 1480 1482 1484 1485 1487 1488 1489
1416 1419 1418 1407 1402 1403 1400 1393 1379 1368 1366 1357 1351 1378 1406 1402 1391 1389 1388 1385 1379 1371 1371 1374 1375 1384 1402 1412 1409 1404 1404 1404 1403 1405 1407 1408 1410 1411 1412 1414 1416 1418 1419 1419 1420 1421 1422 1423 1425 1426 1428 1429 1431 1432 1432 1433 1435 1435 1436 1437 1439 1440 1442 1443 1445 1447 1448 1450 1452 1454 1456 1459 1461 1464 1466 1468 1470 1472 1474 1476 1478 1480 1482 1483 1484 1485 1486
1417 1416 1418 1410 1407 1408 1402 1391 1381 1373 1363 1352 1364 1405 1426 1409 1396 1396 1393 1391 1389 1382 1378 1379 1383 1394 1407 1411 1408 1407 1407 1406 1407 1407 1409 1411 1412 1413 1413 1414 1416 1417 1418 1419 1419 1420 1421 1422 1423 1424 1425 1427 1428 1429 1430 1431 1432 1432 1433 1434 1437 1439 1440 1441 1443 1444 1445 1447 1449 1451 1453 1456 1459 1461 1463 1465 1468 1470 1471 1473 1476 1478 1479 1480 1481 1482 1483
1419 1418 1418 1413 1410 1409 1402 1395 1386 1371 1360 1368 1397 1426 1428 1410 1402 1401 1396 1395 1397 1392 1388 1389 1393 1400 1405 1406 1408 1409 1408 1409 1410 1410 1412 1413 1414 1415 1415 1416 1417 1418 1418 1419 1419 1420 1421 1422 1423 1423 1424 1424 1425 1426 1427 1429 1429 1430 1431 1432 1434 1436 1438 1439 1440 1441 1443 1444 1446 1448 1451 1453 1456 1458 1460 1462 1464 1466 1468 1471 1472 1474 1476 1477 1478 1479 1480
1421 1419 1418 1417 1415 1409 1401 1399 1389 1372 1377 1404 1423 1423 1417 1411 1407 1403 1399 1400 1402 1399 1397 1398 1400 1404 1405 1404 1406 1408 1409 1412 1413 1413 1415 1416 1416 1418 1417 1418 1419 1420 1420 1420 1421 1421 1421 1422 1423 1423 1423 1423 1424 1424 1425 1426 1427 1427 1428 1429 1431 1433 1434 1436 1437 1439 1440 1442 1444 1446 1448 1450 1453 1455 1457 1459 1461 1463 1465 1467 1469 1470 1472 1474 1475 1476 1477
1420 1421 1423 1427 1427 1416 1404 1402 1397 1390 1402 1422 1423 1415 1414 1413 1408 1405 1404 1403 1404 1406 1405 1404 1404 1405 1405 1405 1406 1408 1411 1413 1413 1415 1417 1417 1418 1419 1418 1419 1421 1421 1421 1422 1422 1422 1422 1422 1422 1423 1423 1423 1423 1423 1424 1424 1424 1425 1425 1426 1427 1429 1431 1432 1434 1436 1438 1439 1441 1444 1445 1447 1450 1452 1454 1457 1458 1460 1462 1464 1465 1467 1468 1470 1471 1472 1474
1428 1435 1436 1432 1429 1420 1411 1411 1414 1413 1416 1419 1418 1416 1416 1413 1411 1410 1408 1406 1407 1409 1409 1408 1408 1408 1408 1408 1409 1411 1413 1414 1415 1416 1417 1418 1420 1421 1420 1421 1422 1422 1423 1422 1422 1422 1422 1421 1422 1422 1421 1422 1422 1422 1422 1422 1422 1423 1423 1424 1425 1426 1428 1429 1431 1433 1435 1436 1439 1441 1442 1444 1447 1449 1452 1454 1455 1457 1459 1460 1462 1463 1464 1466 1467 1469 1470
1429 1432 1430 1425 1422 1420 1418 1418 1420 1420 1419 1418 1419 1419 1418 1417 1416 1415 1413 1412 1412 1411 1410 1410 1410 1410 1411 1412 1412 1414 1416 1417 1417 1418 1419 1420 1421 1422 1422 1423 1423 1423 1423 1423 1422 1422 1421 1421 1422 1421 1420 1421 1421 1420 1421 1420 1421 1421 1422 1422 1423 1424 1426 1427 1428 1430 1432 1434 1436 1437 1439 1441 1444 1446 1449 1451 1452 1454 1455 1457 1458 1459 1460 1462 1464 1465 1467
1427 1424 1422 1421 1422 1422 1422 1422 1423 1422 1421 1420 1420 1420 1421 1421 1421 1419 1418 1417 1416 1416 1415 1413 1411 1411 1413 1412 1413 1415 1417 1417 1418 1419 1420 1421 1421 1422 1423 1424 1423 1423 1423 1422 1421 1421 1421 1421 1422 1420 1420 1420 1419 1419 1419 1419 1419 1420 1421 1421 1421 1422 1424 1425 1426 1428 1430 1431 1433 1435 1437 1439 1441 1444 1446 1448 1449 1451 1452 1454 1455 1456 1458 1460 1461 1463 1464
1431 1428 1423 1422 1422 1423 1423 1424 1424 1423 1422 1422 1422 1422 1423 1423 1422 1421 1420 1419 1419 1419 1418 1415 1414 1414 1414 1414 1416 1417 1418 1419 1419 1419 1420 1421 1422 1423 1424 1424 1424 1423 1423 1422 1421 1420 1420 1421 1420 1420 1420 1419 1418 1418 1418 1418 1418 1419 1419 1420 1420 1421 1422 1424 1425 1427 1428 1430 1432 1434 1436 1438 1440 1442 1444 1445 1447 1448 1449 1451 1452 1454 1456 1457 1459 1460 1462
1432 1431 1427 1424 1423 1422 1423 1426 1426 1425 1425 1424 1422 1422 1422 1422 1422 1421 1421 1421 1421 1419 1418 1416 1415 1414 1415 1416 1418 1418 1419 1420 1420 1421 1422 1423 1423 1424 1424 1424 1424 1423 1422 1422 1421 1420 1420 1420 1419 1419 1419 1418 1418 1417 1416 1417 1417 1417 1418 1419 1419 1420 1421 1422 1424 1425 1427 1429 1431 1433 1435 1436 1438 1440 1441 1443 1444 1445 1446 1448 1449 1451 1453 1455 1457 1458 1459
1431 1430 1428 1427 1426 1424 1425 1427 1428 1427 1427 1425 1424 1423 1422 1421 1420 1419 1420 1421 1421 1420 1419 1417 1416 1416 1417 1418 1419 1420 1421 1421 1422 1423 1423 1423 1424 1424 1424 1424 1423 1423 1422 1421 1421 1420 1420 1419 1419 1419 1418 1417 1417 1416 1416 1415 1415 1416 1417 1418 1419 1420 1421 1422 1423 1425 1426 1428 1430 1431 1433 1434 1436 1438 1439 1441 1442 1443 1445 1447 1448 1450 1452 1454 1455 1457 1458
1436 1433 1433 1435 1435 1434 1431 1430 1430 1429 1428 1427 1426 1425 1423 1422 1421 1421 1422 1422 1423 1422 1421 1420 1419 1420 1420 1421 1422 1423 1422 1423 1424 1424 1424 1424 1425 1424 1424 1424 1423 1422 1422 1421 1421 1421 1420 1419 1419 1418 1417 1417 1416 1415 1415 1415 1414 1415 1416 1417 1418 1419 1420 1421 1423 1424 1425 1427 1428 1429 1430 1432 1434 1436 1437 1439 1440 1442 1443 1445 1447 1449 1451 1452 1454 1455 1456
1440 1435 1434 1436 1438 1437 1435 1432 1430 1429 1428 1428 1428 1427 1427 1426 1426 1426 1426 1426 1426 1425 1424 1424 1424 1423 1423 1424 1424 1424 1423 1424 1424 1425 1425 1425 1425 1424 1424 1424 1423 1422 1422 1421 1421 1420 1420 1419 1418 1418 1417 1417 1416 1415 1414 1414 1414 1415 1415 1416 1417 1417 1418 1420 1422 1423 1425 1426 1427 1427 1429 1431 1432 1434 1435 1437 1439 1440 1442 1443 1445 1447 1449 1450 1452 1453 1455
1438 1434 1434 1434 1434 1436 1436 1433 1428 1426 1427 1427 1427 1427 1428 1428 1428 1429 1429 1428 1428 1427 1426 1426 1426 1426 1426 1425 1425 1425 1425 1425 1425 1425 1426 1425 1425 1425 1424 1423 1422 1422 1421 1421 1420 1420 1419 1419 1418 1417 1417 1416 1415 1415 1414 1414 1414 1415 1415 1416 1416 1417 1418 1419 1421 1422 1424 1424 1425 1426 1428 1429 1431 1432 1433 1435 1437 1439 1441 1442 1444 1445 1447 1448 1450 1451 1453
1437 1434 1433 1431 1430 1431 1433 1432 1428 1425 1426 1426 1426 1426 1427 1428 1429 1430 1430 1429 1429 1428 1427 1427 1427 1427 1427 1426 1426 1426 1426 1426 1426 1426 1426 1425 1425 1424 1423 1423 1422 1422 1421 1421 1420 1420 1419 1418 1418 1417 1416 1416 1415 1415 1415 1414 1415 1415 1415 1416 1416 1417 1418 1419 1420 1421 1422 1423 1424 1425 1426 1428 1429 1430 1432 1433 1435 1437 1439 1441 1443 1444 1446 1447 1449 1450 1451
1436 1433 1431 1429 1425 1425 1428 1428 1426 1425 1426 1426 1425 1426 1426 1426 1428 1429 1429 1430 1430 1429 1429 1428 1428 1428 1428 1427 1426 1426 1426 1426 1426 1426 1425 1425 1425 1424 1423 1423 1422 1421 1421 1421 1420 1420 1419 1419 1418 1417 1416 1416 1415 1415 1415 1416 1415 1416 1416 1416 1416 1417 1417 1418 1419 1421 1421 1422 1423 1424 1426 1427 1429 1430 1432 1433 1434 1436 1438 1440 1442 1444 1445 1447 1448 1449 1450
1432 1431 1431 1427 1420 1418 1422 1423 1421 1422 1424 1424 1424 1424 1425 1425 1426 1427 1427 1428 1429 1429 1429 1429 1429 1428 1428 1427 1426 1426 1426 1425 1425 1425 1425 1424 1424 1424 1424 1423 1422 1422 1421 1421 1420 1420 1420 1419 1418 1417 1416 1416 1415 1415 1415 1416 1416 1416 1417 1416 1416 1417 1418 1419 1420 1421 1421 1422 1423 1424 1426 1428 1429 1431 1432 1433 1435 1436 1437 1439 1441 1443 1445 1446 1448 1449 1450
1426 1426 1428 1424 1417 1415 1419 1420 1418 1419 1420 1420 1421 1422 1423 1423 1423 1424 1425 1426 1427 1428 1428 1428 1428 1428 1427 1426 1426 1425 1425 1424 1423 1423 1423 1423 1423 1423 1423 1422 1422 1422 1421 1421 1421 1420 1420 1419 1418 1417 1416 1416 1416 1416 1416 1416 1416 1416 1417 1417 1417 1417 1418 1419 1420 1421 1422 1423 1424 1425 1426 1428 1429 1430 1432 1433 1435 1436 1438 1440 1441 1443 1444 1446 1447 1448 1449
1419 1419 1419 1417 1413 1414 1417 1417 1415 1415 1415 1417 1418 1418 1419 1421 1421 1422 1423 1424 1425 1426 1427 1427 1427 1427 1426 1425 1425 1425 1424 1423 1423 1423 1423 1423 1422 1423 1422 1422 1422 1421 1421 1420 1420 1420 1420 1420 1418 1417 1416 1417 1417 1417 1417 1416 1416 1417 1417 1417 1418 1419 1420 1420 1421 1422 1423 1424 1425 1426 1427 1428 1430 1431 1433 1434 1435 1436 1438 1440 1441 1442 1444 1446 1446 1447 1448
1411 1411 1411 1409 1409 1412 1414 1413 1412 1412 1412 1414 1416 1415 1416 1418 1418 1418 1420 1421 1422 1423 1424 1425 1426 1425 1425 1425 1425 1424 1424 1424 1423 1423 1423 1422 1422 1422 1422 1422 1421 1420 1420 1420 1420 1420 1420 1419 1418 1418 1417 1417 1417 1418 1418 1418 1418 1418 1418 1419 1419 1420 1421 1422 1423 1424 1425 1426 1427 1428 1429 1430 1431 1433 1434 1436 1436 1437 1438 1440 1441 1443 1444 1445 1446 1447 1447
1404 1404 1404 1404 1405 1408 1409 1409 1409 1410 1410 1412 1414 1414 1414 1415 1415 1416 1417 1418 1419 1420 1421 1422 1423 1423 1423 1423 1423 1423 1423 1423 1423 1423 1423 1423 1422 1422 1421 1421 1420 1420 1420 1420 1419 1419 1419 1418 1418 1418 1418 1418 1418 1418 1419 1419 1420 1419 1419 1420 1421 1421 1422 1423 1424 1426 1427 1427 1428 1429 1430 1431 1433 1434 1435 1436 1437 1438 1439 1440 1441 1443 1444 1445 1446 1447 1447
1398 1398 1399 1401 1402 1404 1405 1406 1406 1407 1407 1409 1411 1412 1412 1413 1413 1414 1415 1416 1417 1418 1418 1419 1420 1420 1420 1421 1421 1421 1422 1422 1423 1423 1423 1422 1422 1422 1421 1421 1421 1420 1419 1419 1419 1419 1418 1417 1418 1419 1419 1420 1420 1419 1420 1420 1421 1421 1421 1422 1422 1423 1424 1425 1426 1427 1427 1428 1429 1430 1431 1432 1434 1435 1436 1437 1438 1439 1440 1440 1442 1443 1445 1446 1446 1447 1447
1396 1395 1396 1398 1399 1400 1401 1402 1402 1403 1404 1406 1407 1409 1410 1412 1412 1412 1414 1415 1415 1416 1417 1418 1418 1419 1419 1419 1420 1420 1421 1421 1422 1422 1422 1421 1421 1421 1421 1421 1421 1420 1419 1418 1418 1418 1418 1418 1418 1419 1420 1421 1421 1421 1421 1421 1421 1422 1422 1422 1423 1424 1425 1426 1427 1428 1428 1428 1429 1430 1431 1432 1434 1435 1437 1438 1439 1440 1441 1441 1442 1443 1444 1445 1445 1446 1447
1396 1394 1394 1395 1396 1397 1398 1399 1399 1401 1402 1403 1405 1406 1408 1409 1410 1411 1412 1413 1414 1415 1416 1417 1417 1417 1417 1418 1419 1420 1420 1421 1421 1421 1421 1421 1420 1420 1420 1421 1421 1420 1418 1416 1416 1417 1418 1418 1419 1420 1420 1420 1421 1421 1422 1422 1422 1422 1422 1423 1424 1425 1425 1426 1427 1427 1427 1428 1429 1430 1431 1432 1433 1435 1436 1438 1439 1439 1440 1441 1441 1442 1443 1444 1445 1445 1446
1398 1394 1393 1394 1395 1395 1396 1397 1397 1398 1399 1401 1402 1404 1405 1407 1409 1410 1411 1412 1413 1414 1415 1416 1416 1416 1416 1417 1418 1420 1420 1420 1419 1420 1421 1421 1420 1420 1420 1420 1421 1420 1417 1415 1416 1417 1418 1419 1419 1419 1420 1420 1421 1422 1423 1423 1423 1423 1424 1425 1425 1426 1426 1427 1427 1428 1429 1430 1430 1431 1432 1433 1434 1435 1436 1437 1438 1438 1439 1440 1440 1441 1442 1443 1444 1445 1445
1403 1400 1398 1396 1395 1395 1395 1395 1395 1395 1397 1398 1400 1401 1403 1405 1406 1407 1409 1410 1412 1413 1414 1414 1414 1414 1414 1416 1418 1420 1420 1418 1418 1420 1421 1420 1420 1421 1421 1421 1421 1420 1418 1416 1416 1418 1419 1419 1419 1419 1420 1420 1421 1422 1423 1423 1424 1424 1425 1426 1426 1427 1428 1428 1428 1429 1430 1431 1431 1432 1433 1433 1434 1435 1436 1436 1437 1438 1438 1439 1440 1440 1441 1442 1443 1443 1444
1412 1408 1404 1402 1399 1397 1396 1395 1394 1394 1394 1395 1397 1399 1401 1403 1404 1406 1407 1409 1410 1411 1411 1412 1412 1412 1413 1416 1418 1420 1419 1418 1417 1419 1420 1420 1420 1420 1420 1421 1422 1422 1420 1418 1418 1419 1419 1419 1419 1419 1420 1421 1422 1423 1423 1424 1424 1425 1426 1426 1427 1428 1428 1429 1430 1431 1431 1432 1432 1433 1433 1434 1435 1435 1436 1437 1437 1438 1438 1439 1439 1440 1441 1441 1442 1442 1442
1420 1415 1412 1408 1405 1402 1400 1397 1395 1394 1394 1394 1395 1396 1398 1400 1402 1403 1404 1405 1407 1407 1408 1410 1411 1411 1412 1415 1418 1420 1419 1418 1417 1418 1420 1420 1420 1420 1421 1422 1424 1424 1423 1422 1421 1421 1420 1419 1418 1419 1420 1422 1423 1424 1424 1424 1424 1425 1427 1428 1429 1429 1429 1430 1431 1432 1432 1433 1433 1434 1434 1435 1436 1436 1437 1437 1438 1438 1439 1439 1439 1440 1440 1440 1441 1441 1441
1426 1422 1418 1414 1410 1407 1404 1401 1398 1397 1396 1395 1395 1395 1396 1398 1399 1399 1400 1403 1406 1406 1406 1408 1410 1411 1412 1415 1418 1419 1419 1418 1418 1419 1420 1421 1421 1422 1423 1424 1425 1426 1425 1425 1424 1423 1422 1421 1419 1419 1421 1423 1424 1426 1426 1426 1425 1426 1428 1429 1429 1430 1431 1431 1432 1432 1433 1433 1434 1434 1435 1436 1436 1437 1437 1437 1438 1438 1439 1439 1439 1439 1439 1439 1439 1440 1440
1431 1428 1425 1421 1418 1414 1411 1408 1405 1403 1401 1399 1398 1398 1397 1397 1397 1397 1400 1402 1404 1405 1405 1405 1407 1410 1412 1413 1416 1418 1419 1419 1420 1421 1422 1423 1424 1425 1425 1427 1428 1428 1428 1427 1426 1425 1425 1423 1422 1423 1424 1425 1426 1426 1427 1428 1428 1428 1429 1430 1430 1431 1432 1432 1433 1433 1433 1434 1434 1435 1436 1436 1436 1437 1437 1438 1438 1439 1439 1439 1438 1438 1438 1438 1438 1438 1438
1437 1434 1431 1428 1425 1422 1419 1416 1413 1410 1407 1406 1404 1403 1401 1398 1397 1400 1403 1404 1404 1405 1406 1406 1406 1409 1412 1412 1414 1418 1419 1420 1422 1423 1424 1425 1426 1426 1426 1428 1430 1431 1430 1429 1428 1428 1427 1426 1426 1426 1427 1427 1428 1428 1429 1429 1430 1431 1431 1432 1432 1433 1433 1434 1435 1435 1435 1436 1437 1437 1437 1437 1437 1438 1438 1439 1439 1439 1439 1438 1438 1438 1438 1438 1438 1438 1438
1442 1439 1437 1434 1431 1429 1427 1424 1420 1417 1415 1413 1411 1409 1407 1405 1403 1406 1409 1409 1409 1411 1412 1410 1409 1412 1414 1415 1416 1418 1421 1423 1425 1426 1427 1428 1429 1428 1427 1430 1432 1433 1431 1431 1430 1429 1428 1429 1429 1430 1430 1430 1430 1430 1431 1431 1432 1433 1434 1434 1435 1435 1436 1436 1437 1438 1438 1438 1438 1439 1439 1439 1439 1439 1440 1440 1440 1440 1440 1439 1439 1439 1439 1439 1439 1439 1438
1447 1444 1441 1439 1437 1435 1432 1430 1427 1424 1423 1421 1419 1417 1416 1413 1412 1412 1414 1416 1417 1418 1417 1415 1415 1417 1419 1420 1420 1422 1424 1427 1428 1429 1430 1431 1431 1430 1430 1432 1434 1434 1432 1432 1431 1431 1431 1431 1432 1433 1434 1433 1433 1433 1433 1434 1435 1436 1436 1437 1437 1438 1439 1439 1440 1440 1440 1440 1440 1441 1441 1441 1441 1441 1441 1441 1441 1441 1441 1441 1441 1441 1440 1440 1440 1440 1439
1451 1448 1446 1444 1442 1440 1437 1435 1433 1431 1430 1429 1428 1426 1424 1422 1420 1420 1421 1422 1424 1425 1422 1420 1420 1421 1423 1424 1425 1427 1429 1431 1433 1433 1433 1433 1432 1433 1434 1435 1435 1435 1434 1434 1433 1433 1434 1435 1436 1437 1437 1436 1436 1436 1436 1437 1438 1439 1439 1440 1440 1441 1441 1442 1442 1442 1442 1442 1442 1443 1443 1442 1442 1442 1442 1442 1443 1443 1443 1443 1442 1442 1442 1441 1441 1440 1440
1454 1453 1451 1448 1446 1444 1442 1441 1439 1438 1437 1436 1434 1433 1431 1430 1428 1427 1427 1428 1430 1429 1427 1424 1424 1425 1428 1430 1432 1434 1435 1436 1437 1437 1435 1434 1434 1436 1437 1437 1437 1437 1437 1436 1436 1437 1438 1439 1440 1440 1439 1439 1439 1439 1440 1440 1441 1442 1442 1443 1443 1443 1444 1444 1444 1444 1444 1444 1444 1444 1444 1444 1444 1444 1444 1444 1444 1444 1444 1443 1443 1443 1442 1442 1441 1440 1440
1457 1456 1454 1452 1450 1449 1448 1446 1445 1444 1442 1440 1439 1438 1438 1437 1436 1435 1434 1435 1435 1435 1432 1431 1431 1433 1435 1438 1439 1440 1440 1440 1440 1440 1439 1437 1437 1439 1440 1439 1439 1439 1439 1439 1439 1440 1441 1442 1442 1442 1441 1441 1442 1442 1443 1443 1444 1445 1445 1445 1446 1446 1446 1446 1446 1445 1445 1445 1445 1445 1445 1445 1445 1445 1445 1445 1445 1445 1445 1444 1444 1443 1442 1442 1441 1441 1441
1460 1458 1457 1456 1454 1453 1452 1451 1449 1447 1446 1444 1443 1444 1444 1443 1442 1441 1441 1441 1441 1440 1439 1438 1438 1439 1441 1443 1444 1444 1444 1443 1443 1443 1442 1441 1441 1441 1441 1441 1441 1441 1441 1442 1443 1444 1445 1445 1445 1444 1444 1444 1444 1445 1446 1446 1447 1447 1447 1448 1448 1448 1448 1448 1448 1448 1448 1448 1448 1448 1448 1448 1448 1448 1447 1447 1446 1446 1445 1445 1444 1444 1443 1442 1442 1441 1441
1462 1461 1460 1459 1458 1457 1456 1454 1453 1451 1450 1449 1449 1449 1449 1448 1447 1446 1445 1445 1445 1444 1444 1444 1444 1445 1446 1447 1448 1448 1447 1446 1445 1446 1446 1445 1444 1443 1443 1443 1443 1444 1444 1445 1446 1447 1448 1447 1447 1447 1447 1447 1447 1447 1448 1448 1449 1449 1450 1450 1451 1451 1451 1451 1450 1450 1450 1450 1450 1449 1449 1449 1449 1449 1449 1448 1447 1447 1446 1446 1445 1444 1444 1443 1443 1442 1442
1465 1464 1463 1461 1460 1459 1458 1457 1456 1455 1454 1453 1453 1452 1452 1451 1450 1450 1449 1449 1448 1448 1448 1448 1448 1449 1450 1451 1451 1451 1451 1450 1449 1449 1449 1449 1447 1447 1446 1446 1446 1447 1447 1448 1449 1449 1450 1450 1450 1450 1450 1449 1449 1450 1450 1450 1450 1451 1451 1452 1452 1453 1453 1452 1452 1452 1451 1451 1450 1450 1450 1451 1451 1450 1450 1450 1449 1448 1448 1447 1446 1445 1445 1445 1444 1443 1442
1466 1465 1464 1463 1462 1462 1461 1460 1459 1458 1458 1457 1456 1456 1455 1454 1453 1453 1453 1453 1452 1452 1451 1452 1452 1453 1454 1454 1454 1454 1454 1453 1453 1453 1452 1452 1451 1450 1450 1449 1449 1449 1449 1450 1450 1451 1451 1451 1451 1452 1452 1452 1452 1452 1452 1452 1452 1453 1453 1454 1454 1454 1454 1454 1453 1453 1452 1452 1452 1451 1452 1452 1452 1452 1452 1451 1451 1450 1449 1448 1448 1447 1446 1445 1444 1444 1443
1468 1467 1467 1466 1465 1464 1463 1463 1462 1461 1461 1460 1459 1459 1458 1457 1456 1456 1456 1456 1455 1455 1455 1455 1456 1456 1456 1456 1456 1456 1456 1456 1455 1455 1455 1454 1454 1453 1452 1452 1452 1452 1452 1452 1452 1452 1453 1453 1453 1454 1454 1454 1454 1454 1454 1454 1454 1455 1455 1455 1456 1456 1455 1455 1454 1454 1454 1453 1453 1453 1453 1453 1453 1453 1453 1452 1452 1451 1451 1450 1449 1448 1446 1445 1444 1444 1444
1470 1469 1469 1468 1467 1466 1466 1465 1465 1464 1463 1462 1462 1461 1461 1460 1459 1459 1459 1458 1458 1458 1458 1458 1458 1458 1459 1458 1458 1458 1457 1457 1457 1457 1457 1456 1456 1456 1455 1455 1454 1454 1454 1454 1454 1454 1454 1455 1455 1456 1456 1456 1456 1456 1456 1456 1456 1457 1457 1457 1457 1457 1457 1456 1456 1455 1455 1455 1454 1454 1454 1454 1454 1454 1454 1454 1453 1452 1451 1451 1450 1449 1448 1446 1446 1446 1446